Stations météo

Publicité
St-Sauveur, France (7300): Température de l'air & dewpoint: 16.01.2019 02:00:00 - 22.01.2019 02:00:00 (CET)St-Sauveur, France (7300): Vitesse du vent & gusts: 16.01.2019 02:00:00 - 22.01.2019 02:00:00 (CET)St-Sauveur, France (7300): Direction du vent: 16.01.2019 02:00:00 - 22.01.2019 02:00:00 (CET)St-Sauveur, France (7300): reduced air pressure: 16.01.2019 02:00:00 - 22.01.2019 02:00:00 (CET)St-Sauveur, France (7300): visibility: 16.01.2019 02:00:00 - 22.01.2019 02:00:00 (CET)St-Sauveur, France (7300): Quantités de précipitations: 16.01.2019 02:00:00 - 22.01.2019 02:00:00 (CET)
Date & Time tt [°C] td [°C] ff [km/h] ff [knt] fx [km/h] fx [knt] dd ppp [hPa] vv [km] rr [mm]
22.01.2019 02:00:00 8,4 5,7 29 15 46 25 SW 1016,8 - 0,0
22.01.2019 01:00:00 7,6 4,5 21 11 37 20 SW 1018,3 20 0,0
22.01.2019 00:00:00 6,0 3,5 16 9 27 15 SW 1019,5 - 0,0
21.01.2019 23:00:00 3,4 2,7 12 6 19 11 SW 1020,5 - 0,0
21.01.2019 22:00:00 1,9 0,9 2 1 5 3 S 1021,0 20 0,0
21.01.2019 21:00:00 2,3 0,8 2 1 16 8 WNW 1021,8 - 0,0
21.01.2019 20:00:00 2,7 1,7 11 6 15 8 NNW 1023,1 - 0,0
21.01.2019 19:00:00 1,7 0,2 7 4 10 5 NNW 1023,1 15 0,0
21.01.2019 18:00:00 3,1 0,2 7 4 10 5 NNW 1023,1 - 0,0
21.01.2019 17:00:00 5,3 1,0 5 3 14 7 NNW 1023,4 - 0,0
21.01.2019 16:00:00 5,7 0,8 6 3 17 9 N 1023,6 18 0,0
21.01.2019 15:00:00 6,2 0,9 9 5 20 11 NNE 1024,0 - 0,0
21.01.2019 14:00:00 6,0 0,5 10 6 20 11 NNE 1024,7 - 0,0
21.01.2019 13:00:00 6,5 1,2 10 5 18 10 NNE 1025,3 18 0,0
21.01.2019 12:00:00 5,8 0,7 9 5 18 10 N 1025,6 - 0,0
21.01.2019 11:00:00 5,1 0,3 10 5 17 9 NE 1025,5 - 0,0
21.01.2019 10:00:00 2,8 0,5 6 4 17 9 NE 1025,2 18 0,0
21.01.2019 09:00:00 2,2 -0,7 11 6 25 14 NNE 1025,0 - 0,0
21.01.2019 08:00:00 2,8 -0,7 13 7 29 16 NE 1024,7 - 0,0
21.01.2019 07:00:00 3,0 -0,3 16 9 31 17 NE 1024,0 18 0,0
21.01.2019 06:00:00 3,4 -0,4 20 11 38 20 NE 1023,5 - 0,0
21.01.2019 05:00:00 3,6 -0,1 21 11 35 19 NE 1023,4 - 0,0
21.01.2019 04:00:00 4,4 1,9 17 9 31 17 NNE 1023,1 18 0,0
21.01.2019 03:00:00 4,7 0,8 15 8 37 20 NE 1023,2 - 0,0
21.01.2019 02:00:00 4,9 0,5 17 9 38 20 NE 1022,9 - 0,0
21.01.2019 01:00:00 5,2 1,9 16 9 38 20 NNE 1022,6 18 0,0
21.01.2019 00:00:00 5,6 2,6 21 11 35 19 NNE 1022,1 - 0,0
20.01.2019 23:00:00 5,8 2,4 25 13 38 20 NNE 1021,4 - 0,0
20.01.2019 22:00:00 6,0 2,6 21 12 36 19 NNE 1020,7 18 0,0
20.01.2019 21:00:00 6,1 2,2 19 11 40 22 NNE 1020,1 - 0,0
20.01.2019 20:00:00 6,9 3,0 26 14 47 26 NNE 1019,6 - 0,0
20.01.2019 19:00:00 7,3 3,7 21 11 40 21 NNE 1018,7 18 0,0
20.01.2019 18:00:00 8,0 4,6 17 9 32 17 NNE 1017,8 - 0,0
20.01.2019 17:00:00 8,3 5,4 16 9 29 16 N 1016,9 - 0,0
20.01.2019 16:00:00 8,6 6,0 16 8 30 16 N 1016,4 18 0,0
20.01.2019 15:00:00 8,6 6,7 14 8 30 16 N 1015,7 - 0,0
20.01.2019 14:00:00 8,5 6,8 14 8 27 15 N 1015,6 - 0,0
20.01.2019 13:00:00 8,9 6,9 16 8 28 15 N 1015,4 18 0,0
20.01.2019 12:00:00 8,6 6,9 17 9 29 16 N 1015,1 - 0,0
20.01.2019 11:00:00 8,1 7,0 14 7 23 13 N 1014,3 - 0,0
20.01.2019 10:00:00 7,5 6,9 12 6 22 12 N 1013,3 - 0,0
20.01.2019 09:00:00 7,1 6,7 10 6 18 10 N 1012,5 - 0,0
20.01.2019 08:00:00 6,2 5,6 9 5 18 10 N 1011,8 - 0,0
20.01.2019 07:00:00 6,8 6,4 11 6 21 12 NNW 1011,0 - 0,0
20.01.2019 06:00:00 6,4 6,0 11 6 22 12 NNW 1010,5 - 0,2
20.01.2019 05:00:00 6,2 5,5 14 7 24 13 NNW 1010,2 - 1,6
20.01.2019 04:00:00 7,0 6,6 13 7 18 10 NW 1010,1 20 0,4
20.01.2019 03:00:00 6,5 6,1 12 7 15 8 WNW 1009,8 - 0,0
20.01.2019 02:00:00 5,8 4,9 11 6 18 10 NW 1009,4 - 0,0
20.01.2019 01:00:00 6,6 5,5 12 6 19 10 NNW 1009,3 20 0,0
20.01.2019 00:00:00 6,8 5,1 10 5 17 9 WNW 1009,0 - 0,0
19.01.2019 23:00:00 7,7 6,6 13 7 21 11 WNW 1008,7 - 0,2
19.01.2019 22:00:00 7,5 5,8 12 6 18 10 WNW 1008,5 20 0,0
19.01.2019 21:00:00 7,8 5,9 12 6 19 10 WNW 1008,1 - 0,0
19.01.2019 20:00:00 8,5 6,5 8 4 16 9 W 1008,0 - 0,0
19.01.2019 19:00:00 9,0 7,3 7 4 17 9 W 1007,7 20 0,0
19.01.2019 18:00:00 8,8 7,1 5 3 13 7 WSW 1007,6 - 0,0
19.01.2019 17:00:00 9,4 6,8 8 4 15 8 WSW 1007,5 - 0,0
19.01.2019 16:00:00 9,5 6,6 9 5 22 12 SW 1007,6 20 0,0
19.01.2019 15:00:00 10,6 7,5 8 4 21 12 W 1007,9 - 0,0
19.01.2019 14:00:00 10,9 8,5 8 5 19 10 W 1008,5 - 0,0
19.01.2019 13:00:00 10,9 8,5 8 4 20 11 W 1009,3 15 0,0
19.01.2019 12:00:00 10,1 8,7 10 6 24 13 W 1009,9 - 0,0
19.01.2019 11:00:00 9,8 9,5 7 4 16 8 WSW 1009,9 - 0,0
19.01.2019 10:00:00 8,6 8,3 7 4 17 9 W 1009,7 15 0,0
19.01.2019 09:00:00 7,4 7,1 9 5 16 9 W 1009,6 - 0,0
19.01.2019 08:00:00 6,1 5,5 11 6 22 12 W 1009,6 - 0,0
19.01.2019 07:00:00 7,2 6,8 17 9 28 15 NW 1009,7 15 0,0
19.01.2019 06:00:00 7,4 6,8 8 5 23 12 WNW 1009,8 - 1,0
19.01.2019 05:00:00 7,0 6,6 7 4 14 7 W 1010,1 - 0,0
19.01.2019 04:00:00 6,8 6,2 7 4 15 8 WSW 1010,5 15 0,0
19.01.2019 03:00:00 7,3 6,7 9 5 29 16 WNW 1010,7 - 0,4
19.01.2019 02:00:00 7,1 6,5 12 6 18 10 WNW 1010,9 - 0,0
19.01.2019 01:00:00 7,7 7,1 13 7 21 11 WNW 1011,0 15 0,0
19.01.2019 00:00:00 8,3 7,7 14 7 24 13 WNW 1011,2 - 0,0
18.01.2019 23:00:00 9,1 8,6 11 6 41 22 WSW 1011,2 - 2,0
18.01.2019 22:00:00 9,2 8,9 22 12 41 22 S 1011,3 - 0,6
18.01.2019 21:00:00 8,9 8,4 21 11 35 19 S 1011,8 - 4,9
18.01.2019 20:00:00 8,7 8,1 17 9 36 19 S 1012,6 - 1,4
18.01.2019 19:00:00 8,9 8,4 21 12 44 24 SSE 1012,8 12 0,0
18.01.2019 18:00:00 8,7 8,1 21 12 43 23 SSE 1013,6 - 0,4
18.01.2019 17:00:00 8,7 7,6 24 13 40 22 SSE 1014,0 - 0,0
18.01.2019 16:00:00 9,6 7,7 24 13 39 21 SSE 1014,4 15 0,0
18.01.2019 15:00:00 8,8 7,2 19 10 37 20 SSE 1015,2 - 0,0
18.01.2019 14:00:00 8,2 6,7 22 12 35 19 SE 1015,9 - 0,0
18.01.2019 13:00:00 8,1 6,6 22 12 34 19 SSE 1016,7 15 0,0
18.01.2019 12:00:00 7,8 6,1 21 11 34 18 SE 1017,4 - 0,0
18.01.2019 11:00:00 6,5 5,4 18 10 34 18 SE 1017,8 - 0,0
18.01.2019 10:00:00 6,1 5,1 18 10 32 17 SE 1018,0 15 0,0
18.01.2019 09:00:00 5,8 4,9 18 10 32 17 SE 1018,0 - 0,0
18.01.2019 08:00:00 5,8 4,9 16 9 31 17 SE 1018,2 - 0,0
18.01.2019 07:00:00 5,4 4,5 13 7 23 12 ESE 1018,3 20 0,0
18.01.2019 06:00:00 4,0 3,1 9 5 15 8 E 1018,7 - 0,0
18.01.2019 05:00:00 3,6 2,3 8 4 13 7 E 1019,4 - 0,0
18.01.2019 04:00:00 3,9 2,3 9 5 15 8 ESE 1019,6 - 0,0
18.01.2019 03:00:00 4,5 2,2 9 5 14 8 E 1019,9 - 0,0
18.01.2019 02:00:00 4,9 1,9 9 5 18 10 E 1019,9 - 0,0
18.01.2019 01:00:00 5,3 1,4 11 6 18 10 E 1020,5 20 0,0
18.01.2019 00:00:00 6,2 1,3 13 7 25 13 NNE 1020,9 - 0,0
17.01.2019 23:00:00 6,5 0,6 14 8 28 15 NNE 1020,5 - 0,0
17.01.2019 22:00:00 6,9 1,0 16 9 28 15 NNE 1020,1 - 0,0
17.01.2019 21:00:00 7,7 4,5 12 6 24 13 NNE 1019,7 - 0,0
17.01.2019 20:00:00 6,2 4,2 12 6 21 11 N 1019,3 - 0,0
17.01.2019 19:00:00 6,8 4,3 13 7 22 12 NW 1019,0 20 0,0
17.01.2019 18:00:00 7,9 4,7 13 7 27 14 NW 1018,4 - 0,0
17.01.2019 17:00:00 9,2 5,0 19 10 35 19 NW 1017,8 - 0,0
17.01.2019 16:00:00 10,4 4,7 19 10 39 21 NW 1017,5 20 0,0
17.01.2019 15:00:00 10,5 4,2 19 10 35 19 NW 1017,2 - 0,0
17.01.2019 14:00:00 10,8 4,9 18 10 36 19 NW 1017,3 - 0,0
17.01.2019 13:00:00 10,7 4,8 18 10 39 21 NW 1017,8 20 0,0
17.01.2019 12:00:00 10,2 4,6 23 12 40 21 NW 1018,0 - 0,0
17.01.2019 11:00:00 9,7 4,9 16 9 30 16 NW 1017,5 - 0,0
17.01.2019 10:00:00 7,8 3,5 16 9 29 16 NW 1016,6 20 0,0
17.01.2019 09:00:00 6,8 3,9 15 8 31 17 NW 1015,7 - 0,0
17.01.2019 08:00:00 7,0 4,8 17 9 38 20 WNW 1015,0 - 0,0
17.01.2019 07:00:00 6,9 4,6 20 11 46 25 WNW 1014,4 - 0,2
17.01.2019 06:00:00 6,8 4,5 21 12 62 33 WNW 1013,9 - 1,0
17.01.2019 05:00:00 8,6 5,3 24 13 51 28 WNW 1013,7 - 0,0
17.01.2019 04:00:00 8,5 5,4 24 13 48 26 WNW 1013,4 15 0,0
17.01.2019 03:00:00 8,4 5,7 24 13 45 24 WNW 1013,2 - 0,0
17.01.2019 02:00:00 7,9 5,9 18 10 38 21 WNW 1013,0 - 0,0
17.01.2019 01:00:00 8,4 7,0 19 10 31 17 WNW 1013,2 15 0,2
17.01.2019 00:00:00 8,3 6,9 17 9 35 19 NW 1012,9 - 0,0
16.01.2019 23:00:00 8,9 8,1 15 8 26 14 WNW 1012,5 - 0,0
16.01.2019 22:00:00 8,8 8,0 18 10 36 19 NW 1012,0 - 0,0
16.01.2019 21:00:00 9,2 8,4 23 13 53 29 NW 1011,5 - 1,0
16.01.2019 20:00:00 10,5 9,3 12 6 32 18 W 1010,9 - 0,0
16.01.2019 19:00:00 10,6 9,7 21 12 36 19 SW 1010,8 15 0,0
16.01.2019 18:00:00 10,6 9,2 23 12 40 22 SW 1010,8 - 0,0
16.01.2019 17:00:00 10,7 8,5 25 13 38 20 SW 1011,0 - 0,0
16.01.2019 16:00:00 10,7 7,6 18 10 31 17 SW 1011,3 - 0,0
16.01.2019 15:00:00 10,6 7,3 16 9 30 16 SW 1011,6 - 0,0
16.01.2019 14:00:00 10,5 7,7 12 6 34 19 WSW 1012,2 - 0,0
16.01.2019 13:00:00 9,7 6,0 11 6 28 15 WSW 1012,9 15 0,0
16.01.2019 12:00:00 9,5 5,7 17 9 29 16 SW 1013,7 - 0,0
16.01.2019 11:00:00 9,1 5,3 9 5 24 13 WSW 1014,1 - 0,0
16.01.2019 10:00:00 8,7 4,9 14 8 31 17 SW 1014,2 15 0,0
16.01.2019 09:00:00 7,7 5,0 11 6 17 9 SSW 1014,2 - 0,0
16.01.2019 08:00:00 7,4 5,9 9 5 18 10 SSE 1014,4 - 0,0
16.01.2019 07:00:00 6,8 5,6 10 5 16 9 SSE 1014,8 18 0,0
16.01.2019 06:00:00 5,6 5,3 8 4 13 7 SSE 1015,5 - 0,0
16.01.2019 05:00:00 4,4 4,1 4 2 9 5 SE 1016,2 - 0,0
16.01.2019 04:00:00 3,1 2,8 4 2 10 5 S 1017,2 20 0,0
16.01.2019 03:00:00 1,9 1,3 5 3 12 6 SE 1017,6 - 0,0
16.01.2019 02:00:00 2,2 1,8 6 4 10 5 SSE 1018,3 - 0,0

tt = Température de l'air
td = dewpoint
ff = Vitesse du vent
fx = gusts
dd = Direction du vent
ppp = reduced air pressure
vv = visibility
rr = Quantités de précipitations

stations d'obs. à proximité